Date String (YYYY-MM-DD hh:mm:ss) UTC,Instrument flags,Ambient pressure (hPa),Sample flow (lpm),Bypass flow (lpm),Sample temperature (°C),Ambient temperature (°C),ASC tube jacket temperature (°C),LED temperature (°C),Box temperature (°C),Sample RH (%),Span deviation,Mass concentration (μg/m³),Mass concentration (μg/m³),Mass concentration (μg/m³)
DateTimeUTC,F1_M11,P_M11,Q1_M11,Q2_M11,T1_M11,T2_M11,T3_M11,T4_M11,T5_M11,U1_M11,ZSPAN_M11,X0_M11,X2_M11,X1_M11
2021-11-04 05:00:00,,0830.9,5.01,0.00,27.5,26.6,00.0,36.7,29.3,15.3,0000.0,0008.99,0004.75,0004.35
2021-11-04 05:01:00,,0830.8,4.99,0.00,27.5,26.6,00.0,36.7,29.2,15.3,0001.0,0008.88,0004.74,0004.34
2021-11-04 05:02:00,,0830.8,4.99,0.00,27.5,26.6,00.0,36.6,29.2,15.3,0003.6,0008.84,0004.74,0004.34
2021-11-04 05:03:00,,0830.8,5.00,0.00,27.5,26.6,00.0,36.6,29.2,15.3,0003.0,0008.76,0004.72,0004.34
2021-11-04 05:04:00,,0830.8,5.01,0.00,27.5,26.6,00.0,36.6,29.2,15.4,0004.0,0008.74,0004.71,0004.34
2021-11-04 05:05:00,,0830.9,5.02,0.00,27.5,26.6,00.0,36.6,29.2,15.4,0002.7,0009.39,0004.69,0004.34
2021-11-04 05:06:00,,0830.9,4.99,0.00,27.5,26.5,00.0,36.6,29.2,15.4,0000.0,0009.36,0004.65,0004.33
2021-11-04 05:07:00,,0830.9,4.99,0.00,27.5,26.5,00.0,36.6,29.2,15.4,0000.0,0009.33,0004.63,0004.32
2021-11-04 05:08:00,,0830.8,5.00,0.00,27.4,26.5,00.0,36.6,29.2,15.4,0000.9,0009.38,0004.64,0004.32
2021-11-04 05:09:00,,0830.8,5.00,0.00,27.4,26.5,00.0,36.6,29.1,15.4,0001.9,0009.36,0004.64,0004.33
2021-11-04 05:10:00,,0830.8,5.01,0.00,27.4,26.5,00.0,36.6,29.1,15.4,0002.8,0008.84,0004.63,0004.33
2021-11-04 05:11:00,,0830.8,5.01,0.00,27.4,26.5,00.0,36.6,29.1,15.3,0003.5,0008.27,0004.63,0004.34
2021-11-04 05:12:00,,0830.8,5.00,0.00,27.4,26.5,00.0,36.6,29.1,15.3,0003.6,0008.26,0004.62,0004.35
2021-11-04 05:13:00,,0830.8,5.00,0.00,27.4,26.5,00.0,36.5,29.1,15.3,0003.5,0008.30,0004.63,0004.36
2021-11-04 05:14:00,,0830.8,5.00,0.00,27.4,26.4,00.0,36.5,29.1,15.3,0000.0,0008.33,0004.64,0004.37
2021-11-04 05:15:00,,0830.8,4.99,0.00,27.4,26.4,00.0,36.5,29.1,15.2,0000.0,0008.37,0004.66,0004.37
2021-11-04 05:16:00,,0830.8,5.01,0.00,27.3,26.4,00.0,36.5,29.1,15.0,0000.0,0007.92,0004.66,0004.35
2021-11-04 05:17:00,,0830.8,4.97,0.00,27.3,26.4,00.0,36.5,29.0,14.5,0000.0,0007.55,0004.61,0004.29
2021-11-04 05:18:00,,0830.8,5.01,0.00,27.3,26.3,00.0,36.5,29.0,14.4,0000.0,0007.50,0004.56,0004.23
2021-11-04 05:19:00,,0830.8,5.01,0.00,27.3,26.3,00.0,36.5,29.0,14.4,0000.0,0007.39,0004.46,0004.16
2021-11-04 05:20:00,,0830.8,5.00,0.00,27.3,26.3,00.0,36.5,29.0,14.5,0000.0,0007.28,0004.39,0004.09
2021-11-04 05:21:00,,0830.8,4.99,0.00,27.3,26.3,00.0,36.5,29.0,14.6,0000.0,0007.22,0004.33,0004.03
2021-11-04 05:22:00,,0830.8,5.01,0.00,27.3,26.3,00.0,36.5,29.0,14.7,0000.0,0007.58,0004.29,0003.97
2021-11-04 05:23:00,,0830.8,4.99,0.00,27.3,26.3,00.0,36.4,29.0,14.7,0000.0,0007.85,0004.26,0003.92
2021-11-04 05:24:00,,0830.8,5.00,0.00,27.3,26.3,00.0,36.4,29.0,14.7,0000.0,0007.73,0004.21,0003.87
2021-11-04 05:25:00,,0830.8,5.00,0.00,27.3,26.3,00.0,36.4,29.0,14.7,0000.0,0007.62,0004.14,0003.81
2021-11-04 05:26:00,,0830.8,5.00,0.00,27.3,26.3,00.0,36.4,29.0,14.5,0000.0,0007.47,0004.04,0003.74
2021-11-04 05:27:00,,0830.8,5.01,0.00,27.2,26.3,00.0,36.4,29.0,14.4,0000.0,0007.36,0003.99,0003.70
2021-11-04 05:28:00,,0830.8,4.99,0.00,27.2,26.2,00.0,36.4,28.9,14.3,0000.0,0007.21,0003.96,0003.69
2021-11-04 05:29:00,,0830.8,4.99,0.00,27.2,26.2,00.0,36.4,29.0,14.3,0000.0,0006.96,0003.93,0003.69
2021-11-04 05:30:00,,0830.8,5.01,0.00,27.2,26.2,00.0,36.4,28.9,14.4,0000.0,0006.91,0003.94,0003.69
2021-11-04 05:31:00,,0830.8,5.01,0.00,27.2,26.2,00.0,36.4,28.9,14.5,0000.0,0006.88,0003.92,0003.68
2021-11-04 05:32:00,,0830.8,4.99,0.00,27.2,26.2,00.0,36.4,28.9,14.3,0000.0,0006.73,0003.90,0003.66
2021-11-04 05:33:00,,0830.7,5.00,0.00,27.2,26.2,00.0,36.3,28.9,14.3,0000.0,0006.55,0003.81,0003.63
2021-11-04 05:34:00,,0830.7,4.99,0.00,27.2,26.2,00.0,36.3,28.9,14.3,0000.0,0006.34,0003.76,0003.59
2021-11-04 05:35:00,,0830.7,5.00,0.00,27.2,26.2,00.0,36.3,28.8,14.4,0000.0,0006.63,0003.75,0003.56
2021-11-04 05:36:00,,0830.7,5.01,0.00,27.1,26.2,00.0,36.3,28.8,14.4,0000.0,0006.98,0003.74,0003.54
2021-11-04 05:37:00,,0830.7,4.99,0.00,27.1,26.2,00.0,36.3,28.9,14.5,0000.0,0007.07,0003.73,0003.52
2021-11-04 05:38:00,,0830.7,5.01,0.00,27.1,26.2,00.0,36.3,28.9,14.3,0000.0,0007.03,0003.69,0003.50
2021-11-04 05:39:00,,0830.7,5.00,0.00,27.1,26.1,00.0,36.3,28.8,14.3,0000.0,0007.04,0003.69,0003.49
2021-11-04 05:40:00,,0830.7,4.99,0.00,27.1,26.1,00.0,36.3,28.8,14.3,0000.0,0007.02,0003.68,0003.48
2021-11-04 05:41:00,,0830.8,5.00,0.00,27.1,26.1,00.0,36.3,28.8,14.3,0000.0,0006.96,0003.66,0003.47
2021-11-04 05:42:00,,0830.7,5.00,0.00,27.1,26.1,00.0,36.3,28.8,14.3,0000.0,0007.03,0003.67,0003.46
2021-11-04 05:43:00,,0830.7,4.99,0.00,27.1,26.1,00.0,36.2,28.8,14.2,0000.0,0006.99,0003.65,0003.44
2021-11-04 05:44:00,,0830.7,5.00,0.00,27.1,26.0,00.0,36.2,28.8,14.3,0000.0,0006.23,0003.65,0003.43
2021-11-04 05:45:00,,0830.7,5.01,0.00,27.0,26.0,00.0,36.2,28.7,14.2,0000.0,0005.52,0003.62,0003.42
2021-11-04 05:46:00,,0830.7,5.00,0.00,27.0,26.0,00.0,36.2,28.7,14.1,0000.0,0005.05,0003.58,0003.40
2021-11-04 05:47:00,,0830.7,4.99,0.00,27.0,26.0,00.0,36.2,28.7,14.0,0000.0,0004.58,0003.53,0003.37
2021-11-04 05:48:00,,0830.7,5.02,0.00,27.0,26.0,00.0,36.2,28.7,14.0,0000.0,0004.94,0003.53,0003.36
2021-11-04 05:49:00,,0830.7,4.99,0.00,27.0,26.0,00.0,36.2,28.7,14.0,0000.0,0004.84,0003.51,0003.35
2021-11-04 05:50:00,,0830.7,4.99,0.00,27.0,26.0,00.0,36.2,28.7,14.0,0000.0,0004.75,0003.49,0003.33
2021-11-04 05:51:00,,0830.7,4.99,0.00,27.0,26.0,00.0,36.2,28.7,14.1,0000.0,0004.87,0003.50,0003.32
2021-11-04 05:52:00,,0830.6,5.00,0.00,27.0,26.0,00.0,36.2,28.7,14.2,0000.0,0005.09,0003.50,0003.31
2021-11-04 05:53:00,,0830.6,5.01,0.00,27.0,26.0,00.0,36.1,28.7,14.3,0000.0,0005.26,0003.51,0003.30
2021-11-04 05:54:00,,0830.6,4.99,0.00,27.0,26.0,00.0,36.1,28.7,14.4,0000.0,0005.76,0003.55,0003.31
2021-11-04 05:55:00,,0830.6,4.99,0.00,27.0,26.0,00.0,36.1,28.7,14.4,0000.0,0005.79,0003.56,0003.33
2021-11-04 05:56:00,,0830.6,5.01,0.00,27.0,26.0,00.0,36.1,28.7,14.4,0000.0,0005.88,0003.58,0003.34
2021-11-04 05:57:00,,0830.6,5.00,0.00,26.9,26.0,00.0,36.1,28.6,14.5,0000.0,0005.93,0003.59,0003.35
2021-11-04 05:58:00,,0830.6,4.99,0.00,26.9,26.0,00.0,36.1,28.6,14.6,0000.0,0005.94,0003.61,0003.37
2021-11-04 05:59:00,,0830.6,5.01,0.00,26.9,26.0,00.0,36.1,28.6,14.7,0000.0,0005.72,0003.62,0003.38
